GW3202 Weather Reports


Display with metric or nautical units.
time (UTC)temp
F
wind
direction
speed
MPH
gust
MPH
rain 1hr
in
rain 24hr
in
rain mn
in
humidity
%
barometer
mb
20260901083003 65 90 1.0 3.0 0.00 0.00 0.00 91 1022.6
20260901081004 65 145 1.0 3.0 0.00 0.00 0.00 91 1022.7
20260901080003 65 127 1.0 3.0 0.00 0.00 0.00 92 1022.8
20260901075004 65 98 1.0 5.0 0.00 0.00 0.00 92 1022.9
20260901074004 65 176 0.0 5.0 0.00 0.00 0.00 92 1022.9
20260901073003 65 158 2.0 5.0 0.00 0.00 0.00 92 1022.8
20260901072005 65 262 1.0 3.0 0.00 0.00 0.00 92 1022.9
20260901071003 65 151 0.0 3.0 0.00 0.00 0.00 92 1022.9
20260901070004 65 122 1.0 3.0 0.00 0.00 0.00 92 1022.9
20260901065004 65 122 1.0 3.0 0.00 0.00 0.00 92 1022.8
20260901064004 65 121 2.0 3.0 0.00 0.00 0.00 92 1022.8
20260901063004 64 112 0.0 1.0 0.00 0.00 0.00 93 1022.6
20260901062004 64 345 0.0 3.0 0.00 0.00 0.00 93 1022.9
20260901061007 64 83 1.0 5.0 0.00 0.00 0.00 93 1022.7
20260901060004 64 103 1.0 3.0 0.00 0.00 0.00 93 1022.7
20260901054004 64 244 3.0 6.0 0.00 0.00 0.00 93 1022.7
20260901053004 64 256 3.0 6.0 0.00 0.00 0.00 92 1022.5
20260901052010 66 337 5.0 6.0 0.00 0.00 0.00 89 1022.2
20260901051005 66 277 0.0 3.0 0.00 0.00 0.00 86 1022.2
20260901050004 67 258 1.0 10.0 0.00 0.00 0.00 86 1022.4
20260901045004 67 153 7.0 14.0 0.00 0.00 0.00 86 1022.5
20260901044004 67 114 5.0 14.0 0.00 0.00 0.00 86 1022.6
20260901043004 67 157 5.0 13.0 0.00 0.00 0.00 85 1022.6
20260901041004 67 137 6.0 16.0 0.00 0.00 0.00 84 1022.6
20260901040004 67 145 8.0 18.0 0.00 0.00 0.00 83 1022.4
20260901035006 67 133 4.0 18.0 0.00 0.00 0.00 85 1022.3
20260901034004 68 135 7.0 22.0 0.00 0.00 0.00 81 1022.4
20260901033005 68 133 8.0 17.0 0.00 0.00 0.00 80 1022.5
20260901032005 69 129 5.0 16.0 0.00 0.00 0.00 78 1022.2
20260901031004 69 139 10.0 16.0 0.00 0.00 0.00 78 1022.1
20260901030004 69 141 9.0 18.0 0.00 0.00 0.00 79 1021.8
20260901025004 69 131 13.0 18.0 0.00 0.00 0.00 78 1021.6
20260901023005 69 119 10.0 16.0 0.00 0.00 0.00 80 1021.2
20260901022005 69 126 7.0 16.0 0.00 0.00 0.00 79 1021.0
20260901021004 69 99 7.0 20.0 0.00 0.00 0.00 78 1021.1
20260901020003 69 123 6.0 16.0 0.00 0.00 0.00 78 1020.9
20260901015004 69 87 4.0 17.0 0.00 0.00 0.00 80 1020.8
20260901014004 69 151 8.0 17.0 0.00 0.00 0.00 79 1020.7
20260901013004 69 125 8.0 22.0 0.00 0.00 0.00 81 1020.7
20260901012004 69 126 9.0 17.0 0.00 0.00 0.00 82 1020.6
20260901011004 69 178 5.0 20.0 0.00 0.00 0.00 81 1020.8
20260901010004 70 170 9.0 22.0 0.00 0.00 0.00 80 1020.7
20260901003005 71 157 9.0 20.0 0.00 0.00 0.00 84 1020.4
20260901002004 71 147 6.0 18.0 0.00 0.00 0.00 83 1020.2
20260901001005 72 144 12.0 17.0 0.00 0.00 0.00 83 1020.3
20260901000005 73 151 6.0 15.0 0.00 0.00 0.00 77 1020.1
20260831235005 74 145 6.0 13.0 0.00 0.00 0.00 74 1020.0
20260831234004 74 164 6.0 13.0 0.00 0.00 0.00 73 1019.8
20260831233005 74 184 7.0 13.0 0.00 0.00 0.00 74 1019.7
20260831232005 75 303 5.0 15.0 0.00 0.00 0.00 73 1019.5
20260831231004 76 188 4.0 14.0 0.00 0.00 0.00 71 1019.4
20260831230004 74 176 5.0 13.0 0.00 0.00 0.00 74 1019.2
20260831225005 74 174 3.0 12.0 0.00 0.00 0.00 75 1019.5
20260831224004 74 227 5.0 10.0 0.00 0.00 0.00 72 1019.6
20260831223004 75 115 3.0 13.0 0.00 0.00 0.00 71 1019.6
20260831222005 74 169 3.0 13.0 0.00 0.00 0.00 77 1019.9
20260831214004 76 193 3.0 13.0 0.00 0.00 0.00 64 1019.6
20260831213004 78 176 1.0 8.0 0.00 0.00 0.00 62 1019.9
20260831212005 78 203 3.0 9.0 0.00 0.00 0.00 61 1020.0
20260831211005 78 64 3.0 10.0 0.00 0.00 0.00 61 1020.0
20260831210005 78 170 2.0 13.0 0.00 0.00 0.00 59 1020.2
20260831205008 78 145 10.0 13.0 0.00 0.00 0.00 58 1020.4
20260831204004 79 155 7.0 10.0 0.00 0.00 0.00 57 1020.4
20260831203004 80 163 7.0 13.0 0.00 0.00 0.00 55 1020.6
20260831202004 80 153 5.0 13.0 0.00 0.00 0.00 54 1020.5
20260831201004 80 174 5.0 12.0 0.00 0.00 0.00 52 1020.9
20260831200004 80 154 8.0 12.0 0.00 0.00 0.00 50 1020.9
20260831195006 80 171 5.0 12.0 0.00 0.00 0.00 50 1021.0
20260831194004 79 171 5.0 12.0 0.00 0.00 0.00 52 1021.1
20260831193005 80 95 2.0 9.0 0.00 0.00 0.00 49 1021.3
20260831192004 75 103 2.0 10.0 0.00 0.00 0.00 51 1021.4
20260831191002 79 139 6.0 9.0 0.00 0.00 0.00 58 1021.6
20260831184004 76 247 4.0 6.0 0.00 0.00 0.00 64 1021.8
20260831183003 76 280 2.0 6.0 0.00 0.00 0.00 64 1022.0
20260831182006 77 169 3.0 7.0 0.00 0.00 0.00 64 1021.8
20260831181002 75 181 1.0 6.0 0.00 0.00 0.00 66 1022.2
20260831180004 75 0 0.0 6.0 0.00 0.00 0.00 66 1022.2
20260831175003 75 337 1.0 6.0 0.00 0.00 0.00 70 1022.5
20260831173002 73 19 3.0 9.0 0.00 0.00 0.00 73 1022.7
20260831172003 73 316 2.0 6.0 0.00 0.00 0.00 72 1022.7
20260831171003 71 354 1.0 5.0 0.00 0.00 0.00 73 1022.9
20260831170003 72 27 1.0 10.0 0.00 0.00 0.00 73 1022.9
20260831164003 71 342 5.0 7.0 0.00 0.00 0.00 74 1022.9
20260831163003 71 346 1.0 7.0 0.00 0.00 0.00 75 1022.9
20260831162002 69 41 3.0 6.0 0.00 0.00 0.00 80 1022.9
20260831161003 71 68 1.0 6.0 0.00 0.00 0.00 80 1023.1
20260831155002 68 47 1.0 7.0 0.00 0.00 0.00 83 1023.4
20260831154004 67 61 2.0 7.0 0.00 0.00 0.00 85 1023.1
20260831153003 68 26 2.0 6.0 0.00 0.00 0.00 86 1023.4
20260831152003 68 2 2.0 5.0 0.00 0.00 0.00 85 1023.4
20260831151003 68 306 1.0 5.0 0.00 0.00 0.00 85 1023.3
20260831150002 67 3 3.0 5.0 0.00 0.00 0.00 85 1023.5
20260831145003 68 343 2.0 5.0 0.00 0.00 0.00 84 1023.2
20260831144002 68 12 2.0 6.0 0.00 0.00 0.00 84 1023.3
20260831143003 68 88 2.0 3.0 0.00 0.00 0.00 82 1023.3
20260831142003 66 112 1.0 2.0 0.00 0.00 0.00 88 1023.4
20260831140003 65 143 2.0 2.0 0.00 0.00 0.00 91 1023.3
20260831134003 65 190 2.0 3.0 0.00 0.00 0.00 91 1023.4
20260831131003 64 195 0.0 2.0 0.00 0.00 0.00 92 1023.0
20260831125003 64 25 1.0 2.0 0.00 0.00 0.00 92 1022.9
20260831124002 64 333 0.0 3.0 0.00 0.00 0.00 92 1022.8
20260831123002 64 85 1.0 5.0 0.00 0.00 0.00 92 1022.7
20260831122003 64 341 1.0 3.0 0.00 0.00 0.00 92 1022.6
20260831121002 64 101 1.0 3.0 0.00 0.00 0.00 93 1022.6
20260831120003 64 113 1.0 2.0 0.00 0.00 0.00 93 1022.5
20260831115003 64 42 1.0 3.0 0.00 0.00 0.00 93 1022.3
20260831113002 63 310 1.0 3.0 0.00 0.00 0.00 93 1022.1
20260831112003 63 195 0.0 2.0 0.00 0.00 0.00 93 1021.9
20260831111003 63 90 0.0 3.0 0.00 0.00 0.00 94 1021.8
20260831110003 63 102 0.0 2.0 0.00 0.00 0.00 94 1021.7
20260831105003 63 120 0.0 2.0 0.00 0.00 0.00 94 1021.6
20260831103003 63 109 0.0 3.0 0.00 0.00 0.00 94 1021.5
20260831101002 63 56 0.0 3.0 0.00 0.00 0.00 94 1021.4
20260831100004 63 124 0.0 2.0 0.00 0.00 0.00 94 1021.5
20260831095002 63 226 1.0 2.0 0.00 0.00 0.00 93 1021.4
20260831094003 63 237 0.0 3.0 0.00 0.00 0.00 93 1021.3
20260831092003 63 82 0.0 3.0 0.00 0.00 0.00 93 1021.4
20260831091002 63 192 1.0 5.0 0.00 0.00 0.00 92 1021.3
20260831090003 64 263 0.0 2.0 0.00 0.00 0.00 92 1021.2
20260831085003 64 11 1.0 2.0 0.00 0.00 0.00 92 1021.1
20260831084003 64 114 1.0 2.0 0.00 0.00 0.00 92 1021.1